This is the latest recevied weather packets stored in our database for station/object LZ1HCO-25. If no packets are shown the sender has not sent any weather packets the latest 10 day(s).
| Time | Temp. | Humidity | Pressure | Rain* | Wind** | Luminosity | Snow |
|---|---|---|---|---|---|---|---|
| 1777716788 | 15° C | 65% | 975 hPa | - | - | 0 W/m² | - |
| 1777716477 | 15° C | 68% | 975 hPa | - | - | 0 W/m² | - |
| 1777716166 | 15° C | 68% | 975 hPa | - | - | 0 W/m² | - |
| 1777715854 | 13.89° C | 64% | 975 hPa | - | - | 0 W/m² | - |
| 1777715543 | 15° C | 66% | 975 hPa | - | - | 0 W/m² | - |
| 1777715232 | 15° C | 65% | 975 hPa | - | - | 0 W/m² | - |
| 1777714920 | 13.89° C | 70% | 975 hPa | - | - | 0 W/m² | - |
| 1777714609 | 13.89° C | 67% | 975 hPa | - | - | 0 W/m² | - |
| 1777714297 | 14.44° C | 65% | 975 hPa | - | - | 0 W/m² | - |
| 1777713986 | 15.56° C | 68% | 975 hPa | - | - | 0 W/m² | - |
| 1777713675 | 15° C | 70% | 975 hPa | - | - | 0 W/m² | - |
| 1777713363 | 14.44° C | 73% | 975 hPa | - | - | 0 W/m² | - |
| 1777713052 | 14.44° C | 73% | 975 hPa | - | - | 0 W/m² | - |
| 1777712741 | 13.89° C | 73% | 975 hPa | - | - | 0 W/m² | - |
| 1777712429 | 15.56° C | 70% | 975 hPa | - | - | 0 W/m² | - |
| 1777712118 | 14.44° C | 74% | 975 hPa | - | - | 0 W/m² | - |
| 1777711806 | 14.44° C | 77% | 975 hPa | - | - | 0 W/m² | - |
| 1777711495 | 12.78° C | 70% | 975 hPa | - | - | 0 W/m² | - |
| 1777711184 | 13.89° C | 71% | 975 hPa | - | - | 0 W/m² | - |
| 1777710872 | 14.44° C | 70% | 975 hPa | - | - | 0 W/m² | - |
| 1777710561 | 13.33° C | 69% | 975 hPa | - | - | 0 W/m² | - |
| 1777710250 | 13.89° C | 75% | 975 hPa | - | - | 0 W/m² | - |
| 1777709938 | 15° C | 73% | 975 hPa | - | - | 0 W/m² | - |
| 1777709627 | 13.89° C | 78% | 975 hPa | - | - | 0 W/m² | - |
| 1777709316 | 14.44° C | 75% | 975 hPa | - | - | 0 W/m² | - |
* Rain since midnight (hover to see other rain measurements)
** Current wind speed in m/s (hover to see current wind gust speed)